FW0735 Weather Reports


time (UTC)temp
C
wind
direction
speed
KPH
gust
KPH
rain 1hr
cm
rain 24hr
cm
rain mn
cm
humidity
%
barometer
mb
20260902221022 26 280 0.0 0.0 0.00 0.00 0.00 73 1009.3
20260902220510 26 307 0.0 3.2 0.00 0.00 0.00 73 1009.3
20260902220020 26 309 0.0 3.2 0.00 0.00 0.00 72 1009.3
20260902215513 27 307 1.6 3.2 0.00 0.00 0.00 71 1009.3
20260902215011 27 302 1.6 3.2 0.00 0.00 0.00 68 1009.2
20260902214526 27 302 1.6 3.2 0.00 0.00 0.00 65 1009.2
20260902214014 27 309 1.6 3.2 0.00 0.00 0.00 61 1009.2
20260902213515 27 307 1.6 3.2 0.00 0.00 0.00 55 1009.3
20260902213034 27 304 1.6 3.2 0.00 0.00 0.00 53 1009.4
20260902212518 28 293 0.0 0.0 0.00 0.00 0.00 51 1009.5
20260902212018 28 89 0.0 0.0 0.00 0.00 0.00 51 1009.4
20260902211533 28 91 0.0 0.0 0.00 0.00 0.00 51 1009.4
20260902211018 28 91 0.0 0.0 0.00 0.00 0.00 53 1009.4
20260902210518 28 91 0.0 1.6 0.00 0.00 0.00 54 1009.4
20260902210033 28 91 0.0 4.8 0.00 0.00 0.00 53 1009.4
20260902205518 28 71 0.0 6.4 0.00 0.00 0.00 53 1009.4
20260902205012 28 55 1.6 6.4 0.00 0.00 0.00 52 1009.5
20260902204520 28 95 1.6 3.2 0.00 0.00 0.00 52 1009.5
20260902204013 27 151 0.0 0.0 0.00 0.00 0.00 52 1009.5
20260902203513 27 163 0.0 0.0 0.00 0.00 0.00 53 1009.6
20260902203030 27 164 0.0 3.2 0.00 0.00 0.00 53 1009.6
20260902202516 27 210 0.0 4.8 0.00 0.00 0.00 53 1009.5
20260902202016 28 211 3.2 4.8 0.00 0.00 0.00 53 1009.4
20260902201538 28 196 0.0 3.2 0.00 0.00 0.00 51 1009.5
20260902201019 28 191 1.6 3.2 0.00 0.00 0.00 51 1009.5
20260902200519 28 141 0.0 3.2 0.00 0.00 0.00 52 1009.6
20260902200035 28 264 1.6 3.2 0.00 0.00 0.00 50 1009.5
20260902195519 28 281 3.2 4.8 0.00 0.00 0.00 51 1009.5
20260902195021 28 245 0.0 8.0 0.00 0.00 0.00 52 1009.4
20260902194551 28 269 3.2 12.9 0.00 0.00 0.00 53 1009.5
20260902194020 28 309 8.0 17.7 0.00 0.00 0.00 54 1009.3
20260902193513 28 306 8.0 17.7 0.00 0.00 0.00 53 1009.3
20260902193024 28 357 9.7 19.3 0.00 0.00 0.00 54 1009.3
20260902192511 28 297 8.0 19.3 0.00 0.00 0.00 55 1009.2
20260902192016 28 312 8.0 19.3 0.00 0.00 0.00 56 1009.2
20260902191537 28 319 9.7 20.9 0.00 0.00 0.00 56 1009.2
20260902191016 28 302 12.9 20.9 0.00 0.00 0.00 57 1009.2
20260902190517 28 319 12.9 20.9 0.00 0.00 0.00 57 1009.2
20260902190036 28 344 12.9 19.3 0.00 0.00 0.00 58 1009.3
20260902185516 28 305 11.3 17.7 0.00 0.00 0.00 59 1009.3
20260902185016 28 319 12.9 17.7 0.00 0.00 0.00 60 1009.4
20260902184534 28 300 11.3 17.7 0.00 0.00 0.00 62 1009.5
20260902184020 28 309 9.7 16.1 0.00 0.00 0.00 64 1009.6
20260902183520 28 302 9.7 14.5 0.00 0.00 0.00 66 1009.6
20260902183041 28 298 9.7 12.9 0.00 0.00 0.00 66 1009.6
20260902182520 28 335 4.8 11.3 0.00 0.00 0.00 66 1009.6
20260902182019 28 335 3.2 8.0 0.00 0.00 0.00 66 1009.7
20260902181526 28 299 3.2 6.4 0.00 0.00 0.00 66 1009.7
20260902181017 28 303 1.6 6.4 0.00 0.00 0.00 66 1009.6
20260902180518 28 301 1.6 4.8 0.00 0.00 0.00 65 1009.6
20260902180032 28 299 0.0 3.2 0.00 0.00 0.00 65 1009.6
20260902175516 28 300 0.0 3.2 0.00 0.00 0.00 65 1009.6
20260902175018 28 295 3.2 4.8 0.00 0.00 0.00 65 1009.6
20260902174535 28 278 3.2 4.8 0.00 0.00 0.00 65 1009.5
20260902174022 28 269 3.2 9.7 0.00 0.00 0.00 65 1009.5
20260902173508 28 262 4.8 9.7 0.00 0.00 0.00 65 1009.5
20260902173016 28 274 8.0 11.3 0.00 0.00 0.00 64 1009.4
20260902172511 28 257 8.0 11.3 0.00 0.00 0.00 64 1009.3
20260902172015 28 269 6.4 9.7 0.00 0.00 0.00 64 1009.3
20260902171525 28 245 6.4 11.3 0.00 0.00 0.00 64 1009.2
20260902171017 28 256 6.4 12.9 0.00 0.00 0.00 64 1009.2
20260902170516 28 223 9.7 14.5 0.00 0.00 0.00 64 1009.2
20260902170030 29 236 6.4 16.1 0.00 0.00 0.00 64 1009.1
20260902165516 29 232 11.3 16.1 0.00 0.00 0.00 64 1009.1
20260902165018 29 240 12.9 16.1 0.00 0.00 0.00 64 1009.2
20260902164532 29 237 9.7 19.3 0.00 0.00 0.00 66 1009.1
20260902164017 28 212 12.9 20.9 0.00 0.00 0.00 67 1009.1
20260902163520 28 235 14.5 20.9 0.00 0.00 0.00 68 1009.1
20260902163032 29 245 14.5 20.9 0.00 0.00 0.00 68 1009.1
20260902162518 29 245 16.1 19.3 0.00 0.00 0.00 67 1009.1
20260902162011 29 249 14.5 19.3 0.00 0.00 0.00 67 1009.1
20260902161519 29 219 12.9 19.3 0.00 0.00 0.00 66 1009.1
20260902161012 29 225 14.5 19.3 0.00 0.00 0.00 66 1009.1
20260902160516 29 214 12.9 19.3 0.00 0.00 0.00 65 1009.1
20260902160025 30 240 14.5 19.3 0.00 0.00 0.00 64 1009.2
20260902155518 30 201 14.5 19.3 0.00 0.00 0.00 65 1009.2
20260902155016 30 224 11.3 17.7 0.00 0.00 0.00 66 1009.2
20260902154544 30 224 12.9 19.3 0.00 0.00 0.00 64 1009.2
20260902154021 30 230 12.9 19.3 0.00 0.00 0.00 64 1009.2
20260902153515 30 214 12.9 22.5 0.00 0.00 0.00 63 1009.2
20260902153033 30 210 16.1 22.5 0.00 0.00 0.00 63 1009.1
20260902152516 30 224 17.7 24.1 0.00 0.00 0.00 62 1009.2
20260902152020 30 226 19.3 24.1 0.00 0.00 0.00 63 1009.2
20260902151537 30 219 20.9 24.1 0.00 0.00 0.00 63 1009.2
20260902151008 30 216 16.1 24.1 0.00 0.00 0.00 63 1009.3
20260902150512 30 226 17.7 24.1 0.00 0.00 0.00 63 1009.2
20260902150020 30 241 19.3 25.7 0.00 0.00 0.00 63 1009.3
20260902145512 30 228 17.7 27.4 0.00 0.00 0.00 64 1009.3
20260902145016 30 232 22.5 27.4 0.00 0.00 0.00 63 1009.3
20260902144529 30 248 19.3 25.7 0.00 0.00 0.00 62 1009.3
20260902144016 30 247 19.3 25.7 0.00 0.00 0.00 63 1009.3
20260902143516 30 210 19.3 22.5 0.00 0.00 0.00 62 1009.4
20260902143030 30 238 16.1 27.4 0.00 0.00 0.00 63 1009.4
20260902142516 30 231 19.3 27.4 0.00 0.00 0.00 61 1009.5
20260902142016 30 222 20.9 27.4 0.00 0.00 0.00 62 1009.6
20260902141535 30 205 16.1 24.1 0.00 0.00 0.00 60 1009.6
20260902141015 31 193 14.5 24.1 0.00 0.00 0.00 60 1009.6
20260902140515 31 191 16.1 22.5 0.00 0.00 0.00 60 1009.6
20260902140039 31 201 14.5 22.5 0.00 0.00 0.00 61 1009.6
20260902135511 31 219 14.5 22.5 0.00 0.00 0.00 60 1009.6
20260902135011 31 205 16.1 25.7 0.00 0.00 0.00 60 1009.6
20260902134522 31 177 16.1 25.7 0.00 0.00 0.00 60 1009.6
20260902134013 31 189 14.5 22.5 0.00 0.00 0.00 58 1009.6
20260902133515 31 234 16.1 22.5 0.00 0.00 0.00 55 1009.6
20260902133026 32 238 14.5 22.5 0.00 0.00 0.00 53 1009.6
20260902132514 32 139 11.3 22.5 0.00 0.00 0.00 52 1009.7
20260902132018 32 238 14.5 22.5 0.00 0.00 0.00 51 1009.7
20260902131532 32 207 14.5 22.5 0.00 0.00 0.00 52 1009.7
20260902131015 32 234 17.7 25.7 0.00 0.00 0.00 50 1009.7
20260902130517 31 203 14.5 25.7 0.00 0.00 0.00 50 1009.7
20260902130047 32 207 16.1 22.5 0.00 0.00 0.00 50 1009.7
20260902125518 32 203 14.5 25.7 0.00 0.00 0.00 48 1009.7
20260902125020 32 199 16.1 25.7 0.00 0.00 0.00 53 1009.8
20260902124533 32 195 16.1 24.1 0.00 0.00 0.00 52 1009.8
20260902124010 32 166 19.3 24.1 0.00 0.00 0.00 51 1009.8
20260902123512 32 195 16.1 22.5 0.00 0.00 0.00 52 1009.8
20260902123029 32 210 16.1 22.5 0.00 0.00 0.00 50 1009.9
20260902122516 31 176 12.9 20.9 0.00 0.00 0.00 47 1010.0
20260902122017 31 208 12.9 20.9 0.00 0.00 0.00 53 1010.0
20260902121531 30 165 14.5 22.5 0.00 0.00 0.00 56 1010.0
20260902121019 30 213 14.5 22.5 0.00 0.00 0.00 60 1010.1
20260902120519 30 202 17.7 25.7 0.00 0.00 0.00 61 1010.2
20260902120033 30 181 17.7 25.7 0.00 0.00 0.00 62 1010.2
20260902115515 30 191 17.7 24.1 0.00 0.00 0.00 62 1010.3
20260902115022 30 205 17.7 25.7 0.00 0.00 0.00 61 1010.4
20260902114534 30 207 17.7 25.7 0.00 0.00 0.00 62 1010.5
20260902114019 30 188 19.3 25.7 0.00 0.00 0.00 62 1010.6
20260902113520 30 174 17.7 25.7 0.00 0.00 0.00 61 1010.6
20260902113031 30 162 17.7 24.1 0.00 0.00 0.00 65 1010.6
20260902112512 30 151 19.3 24.1 0.00 0.00 0.00 66 1010.6
20260902112014 30 165 17.7 24.1 0.00 0.00 0.00 64 1010.5
20260902111531 30 162 19.3 22.5 0.00 0.00 0.00 66 1010.5
20260902111017 30 127 17.7 22.5 0.00 0.00 0.00 65 1010.5
20260902110516 30 166 16.1 22.5 0.00 0.00 0.00 64 1010.5
20260902110042 30 141 14.5 22.5 0.00 0.00 0.00 65 1010.5
20260902105515 30 134 17.7 22.5 0.00 0.00 0.00 65 1010.6
20260902105022 30 172 12.9 22.5 0.00 0.00 0.00 64 1010.7
20260902104538 30 181 17.7 22.5 0.00 0.00 0.00 65 1010.7
20260902104019 30 139 14.5 22.5 0.00 0.00 0.00 62 1010.7
20260902103516 30 158 12.9 20.9 0.00 0.00 0.00 65 1010.8
20260902103034 30 155 16.1 19.3 0.00 0.00 0.00 63 1010.9
20260902102517 30 146 14.5 17.7 0.00 0.00 0.00 63 1010.9
20260902102016 30 133 14.5 17.7 0.00 0.00 0.00 63 1010.9
20260902101536 30 149 14.5 17.7 0.00 0.00 0.00 59 1010.9
20260902101013 30 141 11.3 14.5 0.00 0.00 0.00 58 1010.9
20260902100514 30 125 9.7 14.5 0.00 0.00 0.00 57 1010.9
20260902100025 30 122 8.0 14.5 0.00 0.00 0.00 61 1010.8
20260902095517 30 129 11.3 14.5 0.00 0.00 0.00 62 1010.8
20260902095017 30 132 9.7 16.1 0.00 0.00 0.00 61 1010.8
20260902094531 30 131 9.7 17.7 0.00 0.00 0.00 62 1010.8
20260902094022 30 142 9.7 17.7 0.00 0.00 0.00 58 1011.1
20260902093518 30 127 9.7 16.1 0.00 0.00 0.00 59 1011.1
20260902093039 30 114 12.9 16.1 0.00 0.00 0.00 59 1011.3
20260902092519 30 115 11.3 16.1 0.00 0.00 0.00 59 1011.3
20260902092015 30 138 12.9 19.3 0.00 0.00 0.00 60 1011.4
20260902091535 30 129 11.3 19.3 0.00 0.00 0.00 61 1011.4
20260902091024 30 139 12.9 17.7 0.00 0.00 0.00 64 1011.4
20260902090520 30 142 11.3 17.7 0.00 0.00 0.00 59 1011.3
20260902090031 31 124 8.0 14.5 0.00 0.00 0.00 59 1011.3
20260902085515 31 138 6.4 11.3 0.00 0.00 0.00 56 1011.3
20260902085016 31 74 4.8 6.4 0.00 0.00 0.00 57 1011.3
20260902084529 31 102 3.2 8.0 0.00 0.00 0.00 58 1011.3
20260902084016 30 171 3.2 12.9 0.00 0.00 0.00 59 1011.4
20260902083504 30 139 6.4 12.9 0.00 0.00 0.00 60 1011.5
20260902083008 30 143 9.7 16.1 0.00 0.00 0.00 62 1011.7
20260902082508 30 167 9.7 17.7 0.00 0.00 0.00 62 1011.7
20260902082008 30 144 11.3 17.7 0.00 0.00 0.00 62 1011.7
20260902081510 30 159 9.7 14.5 0.00 0.00 0.00 60 1011.7
20260902081006 29 143 11.3 14.5 0.00 0.00 0.00 61 1011.7
20260902080506 29 105 11.3 14.5 0.00 0.00 0.00 62 1011.7
20260902080018 28 115 11.3 16.1 0.00 0.00 0.00 63 1011.7
20260902075506 28 120 9.7 16.1 0.00 0.00 0.00 63 1011.8
20260902075008 28 139 11.3 16.1 0.00 0.00 0.00 65 1011.8
20260902074510 28 181 11.3 17.7 0.00 0.00 0.00 65 1011.8
20260902074009 28 141 11.3 17.7 0.00 0.00 0.00 65 1011.7
20260902073507 28 140 12.9 17.7 0.00 0.00 0.00 66 1011.7
20260902073024 28 89 11.3 14.5 0.00 0.00 0.00 67 1011.5
20260902072503 28 132 9.7 14.5 0.00 0.00 0.00 68 1011.5
20260902072004 28 131 12.9 14.5 0.00 0.00 0.00 68 1011.5
20260902071516 28 133 11.3 14.5 0.00 0.00 0.00 68 1011.6
20260902071007 29 145 11.3 12.9 0.00 0.00 0.00 66 1011.5
20260902070510 29 142 6.4 12.9 0.00 0.00 0.00 64 1011.5
20260902070014 29 134 8.0 12.9 0.00 0.00 0.00 65 1011.4
20260902065510 29 113 3.2 12.9 0.00 0.00 0.00 66 1011.4
20260902065010 28 115 6.4 9.7 0.00 0.00 0.00 67 1011.4
20260902064512 28 129 8.0 11.3 0.00 0.00 0.00 66 1011.4
20260902064009 28 129 8.0 11.3 0.00 0.00 0.00 68 1011.3
20260902063507 29 133 8.0 11.3 0.00 0.00 0.00 67 1011.4
20260902063017 29 141 3.2 9.7 0.00 0.00 0.00 65 1011.4
20260902062509 29 122 3.2 9.7 0.00 0.00 0.00 61 1011.3
20260902062011 29 119 4.8 8.0 0.00 0.00 0.00 59 1011.3
20260902061515 30 125 3.2 8.0 0.00 0.00 0.00 58 1011.3
20260902061011 30 112 1.6 4.8 0.00 0.00 0.00 59 1011.3
20260902060513 28 243 1.6 3.2 0.00 0.00 0.00 59 1011.3
20260902060010 28 271 1.6 6.4 0.00 0.00 0.00 63 1011.2
20260902055510 28 268 3.2 6.4 0.00 0.00 0.00 64 1011.2
20260902055012 28 273 3.2 4.8 0.00 0.00 0.00 63 1011.2
20260902054522 28 234 0.0 4.8 0.00 0.00 0.00 63 1011.2
20260902054008 28 286 1.6 4.8 0.00 0.00 0.00 64 1011.3
20260902053512 28 285 0.0 3.2 0.00 0.00 0.00 60 1011.3
20260902053016 28 307 0.0 1.6 0.00 0.00 0.00 62 1011.3
20260902052508 28 307 0.0 1.6 0.00 0.00 0.00 61 1011.3
20260902052011 27 307 0.0 3.2 0.00 0.00 0.00 54 1011.3
20260902051519 27 307 1.6 4.8 0.00 0.00 0.00 52 1011.2
20260902051010 26 307 3.2 4.8 0.00 0.00 0.00 51 1011.2
20260902050515 26 307 3.2 4.8 0.00 0.00 0.00 48 1011.2
20260902050015 26 304 3.2 4.8 0.00 0.00 0.00 49 1011.2
20260902045508 25 304 4.8 4.8 0.00 0.00 0.00 50 1011.1
20260902045007 25 307 4.8 4.8 0.00 0.00 0.00 53 1011.1
20260902044515 25 302 4.8 4.8 0.00 0.00 0.00 53 1011.1
20260902044012 25 308 3.2 4.8 0.00 0.00 0.00 56 1011.0
20260902043511 24 309 4.8 4.8 0.00 0.00 0.00 55 1011.0
20260902043015 23 304 1.6 4.8 0.00 0.00 0.00 60 1011.1
20260902042510 23 292 4.8 4.8 0.00 0.00 0.00 61 1011.1
20260902042013 23 297 4.8 6.4 0.00 0.00 0.00 59 1011.1
20260902041518 23 305 4.8 6.4 0.00 0.00 0.00 60 1011.1
20260902041011 23 291 6.4 8.0 0.00 0.00 0.00 60 1011.1
20260902040511 24 290 6.4 8.0 0.00 0.00 0.00 58 1011.1
20260902040019 24 296 6.4 8.0 0.00 0.00 0.00 55 1011.1
20260902035510 25 296 6.4 8.0 0.00 0.00 0.00 54 1011.1
20260902035010 25 294 6.4 6.4 0.00 0.00 0.00 54 1011.0
20260902034518 25 301 4.8 8.0 0.00 0.00 0.00 55 1011.0
20260902034007 25 301 4.8 8.0 0.00 0.00 0.00 55 1011.0
20260902033517 25 297 6.4 8.0 0.00 0.00 0.00 53 1010.9
20260902033013 25 285 6.4 8.0 0.00 0.00 0.00 52 1010.9
20260902032512 25 295 6.4 8.0 0.00 0.00 0.00 54 1010.9
20260902032020 25 285 4.8 4.8 0.00 0.00 0.00 54 1010.9
20260902031516 25 285 3.2 6.4 0.00 0.00 0.00 51 1010.9
20260902031012 25 301 4.8 8.0 0.00 0.00 0.00 53 1010.8
20260902030510 24 306 6.4 8.0 0.00 0.00 0.00 56 1010.8
20260902030019 23 301 4.8 6.4 0.00 0.00 0.00 59 1010.8
20260902025512 23 302 3.2 6.4 0.00 0.00 0.00 61 1010.8
20260902025014 23 302 4.8 6.4 0.00 0.00 0.00 61 1010.8
20260902024517 23 297 4.8 4.8 0.00 0.00 0.00 63 1010.8
20260902024013 23 294 4.8 4.8 0.00 0.00 0.00 62 1010.7
20260902023511 23 295 4.8 4.8 0.00 0.00 0.00 62 1010.7
20260902023033 24 284 3.2 6.4 0.00 0.00 0.00 60 1010.7
20260902022511 24 296 3.2 9.7 0.00 0.00 0.00 60 1010.7
20260902022014 24 311 4.8 9.7 0.00 0.00 0.00 57 1010.6
20260902021531 24 308 8.0 9.7 0.00 0.00 0.00 57 1010.6
20260902021016 24 304 4.8 8.0 0.00 0.00 0.00 61 1010.5
20260902020514 24 310 4.8 6.4 0.00 0.00 0.00 59 1010.5
20260902020022 24 325 1.6 4.8 0.00 0.00 0.00 60 1010.5
20260902015516 24 312 3.2 4.8 0.00 0.00 0.00 60 1010.5
20260902015014 24 301 3.2 6.4 0.00 0.00 0.00 60 1010.5
20260902014525 24 304 3.2 6.4 0.00 0.00 0.00 61 1010.5
20260902014012 24 304 4.8 6.4 0.00 0.00 0.00 60 1010.6
20260902013511 24 307 4.8 6.4 0.00 0.00 0.00 63 1010.6
20260902013022 24 308 4.8 4.8 0.00 0.00 0.00 65 1010.6
20260902012514 24 304 4.8 6.4 0.00 0.00 0.00 65 1010.5
20260902012017 25 302 4.8 8.0 0.00 0.00 0.00 63 1010.5
20260902011514 25 297 6.4 8.0 0.00 0.00 0.00 62 1010.5
20260902011012 25 295 6.4 8.0 0.00 0.00 0.00 61 1010.5
20260902010512 25 298 6.4 6.4 0.00 0.00 0.00 64 1010.5
20260902010022 25 303 4.8 6.4 0.00 0.00 0.00 62 1010.4
20260902005515 25 311 3.2 6.4 0.00 0.00 0.00 59 1010.4
20260902005013 25 309 1.6 4.8 0.00 0.00 0.00 57 1010.4
20260902004527 25 311 1.6 4.8 0.00 0.00 0.00 59 1010.3
20260902004013 26 310 3.2 3.2 0.00 0.00 0.00 60 1010.4
20260902003516 26 309 1.6 3.2 0.00 0.00 0.00 57 1010.3
20260902003029 25 308 1.6 3.2 0.00 0.00 0.00 60 1010.3
20260902002511 25 307 1.6 4.8 0.00 0.00 0.00 61 1010.3
20260902002021 25 307 1.6 4.8 0.00 0.00 0.00 64 1010.3
20260902001528 26 307 3.2 4.8 0.00 0.00 0.00 63 1010.3
20260902001014 26 311 0.0 0.0 0.00 0.00 0.00 57 1010.3
20260902000516 26 342 0.0 0.0 0.00 0.00 0.00 53 1010.3
20260902000019 26 291 0.0 0.0 0.00 0.00 0.00 52 1010.3
20260901235513 26 291 0.0 0.0 0.00 0.00 0.00 51 1010.3
20260901235013 26 290 0.0 0.0 0.00 0.00 0.00 52 1010.3
20260901234525 26 290 0.0 0.0 0.00 0.00 0.00 52 1010.3
20260901234018 26 290 0.0 0.0 0.00 0.00 0.00 53 1010.3
20260901233514 26 290 0.0 0.0 0.00 0.00 0.00 54 1010.3
20260901233026 26 290 0.0 0.0 0.00 0.00 0.00 55 1010.3
20260901232514 26 290 0.0 1.6 0.00 0.00 0.00 54 1010.2
20260901232013 26 290 0.0 1.6 0.00 0.00 0.00 56 1010.2
20260901231528 26 290 1.6 1.6 0.00 0.00 0.00 57 1010.1
20260901231016 26 290 1.6 3.2 0.00 0.00 0.00 60 1010.2
20260901230514 27 290 1.6 3.2 0.00 0.00 0.00 58 1010.2
20260901230034 27 349 0.0 3.2 0.00 0.00 0.00 51 1010.2
20260901225515 27 350 1.6 3.2 0.00 0.00 0.00 51 1010.3
20260901225014 27 356 1.6 3.2 0.00 0.00 0.00 51 1010.3
20260901224521 27 351 1.6 3.2 0.00 0.00 0.00 52 1010.3
20260901224021 27 345 0.0 1.6 0.00 0.00 0.00 53 1010.3
20260901223514 27 345 0.0 1.6 0.00 0.00 0.00 50 1010.4
20260901223034 27 345 0.0 1.6 0.00 0.00 0.00 51 1010.5
20260901222516 26 240 0.0 0.0 0.00 0.00 0.00 54 1010.4
20260901222016 27 240 0.0 0.0 0.00 0.00 0.00 52 1010.4
20260901221533 27 240 0.0 0.0 0.00 0.00 0.00 50 1010.4